Hailey, ID

10:12 AM MDT on May 22, 2017 (GMT -0600)
Friedman Memorial

Weather History for KSUN - March, 2013

Change the Weather History Date:

Tuesday, March 26, 2013

  Actual Average Record
Temperature  
Mean Temperature 37 °F -  
Max Temperature 42 °F 48 °F 60 °F (1997)
Min Temperature 32 °F 26 °F 17 °F (2005)
Degree Days  
Heating Degree Days 28    
Moisture  
Dew Point 27 °F    
Average Humidity 73    
Maximum Humidity 93    
Minimum Humidity 56    
Precipitation  
Precipitation 0.00 in - - ()
Sea Level Pressure  
Sea Level Pressure 29.96 in    
Wind  
Wind Speed 7 mph (NW)    
Max Wind Speed 14 mph    
Max Gust Speed -    
Visibility 9 miles    
Events Snow    
Averages and records for this station are not official NWS values.
T = Trace of Precipitation, MM = Missing Value Source: NWS Daily Summary

Daily Weather History Graph

Daily Weather History Graph

Search for Another Location

Airport or City:

Trip Planner

Search our weather history database for the weather conditions in past years. The results will help you decide how hot, cold, wet, or windy it might be!

Date:

Astronomy

Mar. 26, 2013 Rise Set
Actual Time 7:29 AM MDT 7:57 PM MDT
Civil Twilight 7:00 AM MDT 8:25 PM MDT
Nautical Twilight 6:26 AM MDT 8:59 PM MDT
Astronomical Twilight 5:51 AM MDT 9:34 PM MDT
Moon 7:39 PM MDT (3/26) 6:48 AM MDT (3/26)
Length of Visible Light 13h 25m
Length of Day
12h 28m
Waxing Gibbous, 99% of the Moon is Illuminated
Mar 26
Waxing Gibbous
Mar 27
Full
Apr 2
Last Quarter
Apr 10
New
Apr 18
First Quarter

Hourly Weather History & Observations

Time (MDT) Temp. Windchill Dew Point Humidity Pressure Visibility Wind Dir Wind Speed Gust Speed Precip Events Conditions
12:15 AM 32.0 °F 27.5 °F 19.4 °F 60% 30.02 in 10.0 mi NNW 4.6 mph - N/A   Overcast
12:55 AM 33.8 °F 28.6 °F 19.4 °F 56% 30.01 in 10.0 mi NW 5.8 mph - N/A   Scattered Clouds
1:15 AM 32.0 °F 26.4 °F 19.4 °F 60% 30.00 in 10.0 mi North 5.8 mph - N/A   Clear
1:55 AM 32.0 °F 24.2 °F 19.4 °F 60% 29.99 in 10.0 mi NW 9.2 mph - N/A   Clear
2:15 AM 32.0 °F 23.0 °F 19.4 °F 60% 29.99 in 10.0 mi NNW 11.5 mph - N/A   Mostly Cloudy
2:35 AM 32.0 °F 23.6 °F 19.4 °F 60% 29.99 in 10.0 mi NW 10.4 mph - N/A   Overcast
2:55 AM 33.8 °F 27.0 °F 19.4 °F 56% 29.98 in 10.0 mi NW 8.1 mph - N/A   Overcast
3:15 AM 33.8 °F 26.4 °F 19.4 °F 56% 29.97 in 10.0 mi NNW 9.2 mph - N/A   Overcast
3:35 AM 33.8 °F 27.7 °F 19.4 °F 56% 29.96 in 10.0 mi WNW 6.9 mph - N/A   Overcast
3:55 AM 33.8 °F 29.6 °F 19.4 °F 56% 29.96 in 10.0 mi NW 4.6 mph - N/A   Overcast
4:15 AM 32.0 °F 27.5 °F 21.2 °F 64% 29.96 in 10.0 mi NNW 4.6 mph - N/A   Mostly Cloudy
4:35 AM 32.0 °F 26.4 °F 21.2 °F 64% 29.96 in 10.0 mi North 5.8 mph - N/A   Mostly Cloudy
4:55 AM 32.0 °F 27.5 °F 23.0 °F 69% 29.95 in 10.0 mi NW 4.6 mph - N/A   Overcast
5:15 AM 32.0 °F 24.2 °F 23.0 °F 69% 29.94 in 10.0 mi NNW 9.2 mph - N/A   Overcast
5:35 AM 32.0 °F 23.0 °F 23.0 °F 69% 29.94 in 10.0 mi NW 11.5 mph - N/A   Overcast
5:55 AM 32.0 °F 23.6 °F 23.0 °F 69% 29.93 in 10.0 mi NW 10.4 mph - N/A   Overcast
6:15 AM 32.0 °F 22.1 °F 26.6 °F 80% 29.94 in 10.0 mi NW 13.8 mph - N/A   Overcast
6:35 AM 32.0 °F 23.0 °F 24.8 °F 75% 29.94 in 10.0 mi NW 11.5 mph - N/A   Overcast
6:47 AM 33.8 °F 25.3 °F 24.8 °F 70% 29.94 in 10.0 mi NW 11.5 mph - N/A   Overcast
6:55 AM 32.0 °F 22.1 °F 23.0 °F 69% 29.94 in 10.0 mi NW 13.8 mph - N/A   Overcast
7:47 AM 33.8 °F 25.3 °F 24.8 °F 70% 29.94 in 10.0 mi NW 11.5 mph - N/A   Overcast
8:48 AM 33.8 °F 27.0 °F 26.6 °F 75% 29.96 in 6.0 mi WNW 8.1 mph - N/A Snow Light Snow
9:48 AM 33.8 °F 25.3 °F 30.2 °F 87% 29.96 in 7.0 mi NW 11.5 mph - N/A Snow Light Snow
10:47 AM 35.6 °F 27.5 °F 30.2 °F 81% 29.96 in 10.0 mi WNW 11.5 mph - N/A   Overcast
11:47 AM 37.4 °F 31.4 °F 30.2 °F 75% 29.96 in 10.0 mi NW 8.1 mph - N/A   Overcast
12:12 PM 39.2 °F 35.9 °F 32.0 °F 75% 29.96 in 3.0 mi NW 4.6 mph - N/A   Unknown
12:47 PM 39.2 °F - 32.0 °F 75% 29.96 in 3.0 mi Calm Calm - N/A   Unknown
1:15 PM 37.4 °F 33.8 °F 33.8 °F 87% 29.97 in 1.0 mi SW 4.6 mph - N/A Snow Light Snow
1:30 PM 35.6 °F - 33.8 °F 93% 29.97 in 1.0 mi Calm Calm - N/A Snow Light Snow
1:47 PM 35.6 °F - 33.8 °F 93% 29.97 in 1.5 mi Calm Calm - N/A Snow Light Snow
2:47 PM 37.4 °F 32.1 °F 35.6 °F 93% 29.96 in 7.0 mi SE 6.9 mph - N/A   Mostly Cloudy
3:47 PM 42.8 °F 38.0 °F 37.4 °F 81% 29.96 in 10.0 mi SE 8.1 mph - N/A   Mostly Cloudy
4:47 PM 42.8 °F 38.6 °F 33.8 °F 70% 29.95 in 10.0 mi SSE 6.9 mph - N/A   Mostly Cloudy
5:47 PM 42.8 °F 39.3 °F 33.8 °F 70% 29.95 in 10.0 mi SE 5.8 mph - N/A   Scattered Clouds
7:47 PM 41.0 °F 37.1 °F 32.0 °F 70% 29.95 in 10.0 mi SE 5.8 mph - N/A   Scattered Clouds
8:47 PM 37.4 °F - 32.0 °F 81% 29.96 in 10.0 mi Calm Calm - N/A   Scattered Clouds
9:47 PM 37.4 °F - 32.0 °F 81% 29.97 in 10.0 mi Calm Calm - N/A   Scattered Clouds
10:47 PM 35.6 °F 30.7 °F 30.2 °F 81% 29.98 in 10.0 mi NW 5.8 mph - N/A   Partly Cloudy
11:15 PM 33.8 °F 30.8 °F 32.0 °F 93% 29.98 in 10.0 mi North 3.5 mph - N/A   Scattered Clouds
11:35 PM 32.0 °F 28.7 °F 30.2 °F 93% 29.98 in 10.0 mi North 3.5 mph - N/A   Scattered Clouds
11:55 PM 32.0 °F - 30.2 °F 93% 29.99 in 10.0 mi Calm Calm - N/A   Clear